Temp
11 11 12 13 13 13 13 14 14 14 15 15 16 16 15 15 17 16 19 22 22 21 20 22 21 21 18 19 19 19 16 15 16 17 19 21 22 23 24 24 25 26 26 27 27
9 10 11 11 12 12 12 12 13 13 13 14 14 15 15 15 16 16 22 21 21 21 21 21 21 19 18 18 19 18 14 16 19 20 19 20 20 22 22 23 22 24 25 25 26
5 6 6 8 9 10 11 11 12 12 12 13 13 14 14 14 14 18 20 21 21 22 22 21 20 19 17 18 19 17 18 19 21 21 21 20 20 22 22 21 23 23 24 25 25
8 7 6 7 7 7 8 9 11 11 11 12 12 12 12 11 12 18 18 18 19 21 22 19 18 17 15 16 18 16 18 20 21 21 21 19 21 21 21 22 23 24 24 25 25
7 7 7 8 8 8 8 8 7 7 9 10 9 8 10 9 11 19 18 18 17 18 19 17 18 18 15 16 18 16 17 20 20 20 20 21 20 20 21 23 23 24 24 25 25
6 6 6 6 7 8 8 8 8 8 7 6 5 4 5 4 14 17 18 18 17 17 17 16 18 18 18 18 16 18 18 19 20 20 21 20 20 21 22 22 23 24 25 25 25
6 6 6 6 7 7 7 8 8 8 7 6 5 4 4 6 15 15 15 18 18 17 17 18 19 18 19 18 20 19 17 17 18 21 20 21 19 20 22 22 23 24 25 25 25
5 5 5 6 6 6 7 8 8 8 8 7 5 4 4 8 12 15 16 18 17 16 17 17 18 18 18 18 18 18 17 17 19 20 20 20 19 21 23 23 23 24 25 26 26
5 5 5 5 6 6 6 7 8 8 8 7 4 3 4 10 11 15 16 16 18 16 15 16 17 17 17 16 15 15 16 16 17 20 20 19 19 21 23 23 23 23 24 24 25
3 3 4 4 5 5 6 7 7 6 6 4 3 4 7 10 10 13 14 15 16 16 16 15 17 14 12 14 15 15 15 15 17 20 19 18 18 20 22 22 22 23 23 23 25
2 3 3 4 4 3 5 6 5 5 4 5 5 5 8 9 11 12 13 14 12 15 13 15 14 14 16 16 16 16 16 17 18 20 19 17 17 18 20 20 20 21 22 24 26
3 3 3 4 4 4 4 4 3 2 3 5 6 5 7 10 6 11 12 12 12 13 15 14 15 17 16 16 16 16 16 16 17 19 19 17 18 19 19 20 21 22 22 23 24
3 3 3 4 4 4 3 3 3 3 3 5 7 6 7 8 6 9 10 14 13 13 15 15 17 18 17 16 15 15 16 16 16 19 18 17 17 18 19 20 21 23 23 24 24
3 3 3 3 4 4 4 3 3 4 3 5 6 8 7 7 8 11 11 14 14 13 15 15 17 17 16 16 16 15 17 17 17 17 16 17 14 17 17 19 19 22 25 26 26
3 3 3 2 2 2 3 3 4 4 3 9 9 9 10 9 10 11 12 13 13 13 14 14 16 16 16 17 18 17 19 18 18 16 16 17 14 17 17 17 19 19 24 26 26
3 3 3 3 3 3 3 3 4 3 4 8 10 9 9 9 10 11 11 12 15 14 15 16 18 17 17 18 18 19 18 17 15 14 14 16 15 16 16 19 20 19 23 24 23
3 3 3 2 3 2 2 3 2 2 8 8 7 8 10 9 10 11 11 11 12 12 13 15 15 17 18 17 17 17 14 12 11 11 13 17 15 18 18 18 19 20 22 23 18
4 4 3 2 2 2 2 2 2 6 7 8 7 9 10 9 7 9 10 10 13 14 14 13 13 16 17 17 17 17 16 12 14 13 15 16 15 18 18 19 21 21 21 21 16
4 4 3 3 3 2 2 2 3 5 6 6 7 8 8 8 7 7 8 11 13 13 14 14 14 17 18 19 19 17 14 16 15 16 15 15 17 19 20 20 21 19 18 17 16
3 3 3 3 2 2 3 2 3 6 6 6 5 7 6 7 7 5 7 9 9 10 15 15 14 17 17 18 19 16 16 15 15 14 15 16 16 18 21 21 20 17 14 15 15
2 2 2 2 2 1 2 2 3 5 6 5 5 5 6 7 7 5 5 8 6 8 10 15 14 16 15 16 17 16 15 15 15 12 14 14 15 15 19 19 19 17 17 16 17
0 -1 2 2 2 1 1 3 4 5 5 5 5 5 6 7 6 4 5 4 3 7 7 8 11 13 15 16 18 18 18 14 16 13 14 14 15 19 17 17 17 17 18 16 16
-0 -0 2 2 1 1 2 2 4 4 5 5 5 6 6 6 6 6 5 5 4 5 7 8 8 12 14 17 16 17 17 18 13 12 15 17 16 18 17 17 17 16 17 16 16
0 -1 2 2 1 1 2 2 3 5 5 5 5 5 6 6 7 6 6 6 4 6 7 7 6 9 14 16 15 16 17 18 16 14 15 17 19 20 21 17 16 16 17 17 17
1 -0 1 1 -1 1 1 1 2 3 4 4 4 5 4 5 5 5 5 6 6 5 5 5 5 8 10 14 16 17 17 17 17 18 17 18 18 18 19 17 15 16 16 16 16
1 1 1 1 1 2 1 1 2 3 3 3 4 4 4 4 5 4 5 5 4 5 5 4 5 7 9 13 15 16 17 17 18 18 18 19 18 18 19 17 15 17 16 16 17
1 1 1 1 0 1 2 2 2 2 4 4 4 3 3 5 6 5 6 6 6 5 5 4 5 6 7 9 15 15 17 17 17 18 19 18 21 18 18 16 15 17 18 18 18
Height
1512 1511 1509 1509 1506 1503 1504 1503 1502 1502 1501 1500 1499 1499 1499 1499 1498 1498 1496 1498 1504 1503 1503 1503 1505 1509 1515 1514 1515 1516 1527 1529 1516 1512 1496 1489 1492 1489 1491 1491 1490 1489 1487 1484 1483
1507 1505 1504 1502 1500 1502 1499 1497 1497 1497 1497 1495 1495 1495 1496 1493 1491 1486 1492 1494 1498 1499 1501 1498 1500 1505 1511 1511 1513 1513 1520 1513 1494 1493 1490 1488 1492 1491 1489 1486 1483 1484 1481 1482 1481
1507 1505 1504 1501 1499 1496 1495 1493 1492 1492 1492 1490 1489 1488 1491 1489 1487 1478 1481 1486 1489 1492 1493 1494 1497 1501 1504 1506 1504 1503 1502 1492 1489 1488 1491 1488 1486 1490 1486 1484 1480 1480 1477 1476 1475
1506 1503 1500 1498 1495 1494 1491 1490 1487 1487 1486 1483 1483 1484 1485 1487 1491 1477 1478 1480 1480 1482 1484 1487 1491 1496 1499 1498 1496 1500 1493 1491 1484 1488 1489 1487 1487 1483 1484 1478 1475 1475 1474 1472 1470
1504 1502 1499 1496 1494 1492 1491 1489 1487 1483 1479 1477 1480 1481 1481 1479 1470 1477 1477 1475 1477 1478 1479 1483 1481 1484 1493 1488 1492 1491 1486 1485 1487 1486 1481 1483 1482 1479 1476 1469 1471 1469 1468 1465 1464
1502 1499 1496 1494 1492 1489 1487 1484 1482 1479 1477 1477 1476 1477 1478 1467 1467 1471 1471 1472 1474 1475 1478 1478 1475 1477 1481 1483 1484 1480 1484 1483 1484 1481 1478 1478 1476 1476 1461 1464 1464 1463 1461 1458 1458
1500 1497 1494 1491 1488 1485 1483 1481 1479 1477 1474 1472 1472 1471 1465 1442 1461 1462 1464 1466 1468 1470 1472 1475 1476 1479 1477 1479 1477 1477 1482 1480 1477 1471 1471 1473 1473 1465 1454 1461 1459 1456 1454 1452 1450
1497 1494 1491 1488 1485 1482 1480 1477 1474 1471 1468 1467 1466 1467 1450 1445 1451 1454 1461 1459 1462 1465 1468 1474 1477 1477 1476 1476 1474 1475 1477 1483 1466 1464 1465 1469 1467 1449 1452 1455 1451 1449 1446 1446 1443
1494 1491 1488 1485 1482 1478 1474 1471 1469 1465 1462 1462 1464 1466 1448 1445 1441 1445 1448 1450 1458 1461 1466 1470 1473 1471 1471 1477 1483 1478 1478 1478 1472 1459 1463 1463 1459 1446 1448 1449 1445 1441 1439 1439 1436
1493 1489 1486 1482 1478 1474 1471 1467 1463 1460 1459 1459 1463 1466 1447 1441 1439 1436 1436 1440 1448 1455 1462 1465 1466 1465 1465 1470 1467 1477 1480 1475 1466 1457 1458 1459 1456 1447 1441 1445 1439 1435 1433 1431 1426
1491 1487 1484 1480 1476 1472 1469 1465 1465 1463 1461 1461 1459 1454 1442 1439 1435 1435 1433 1435 1442 1450 1453 1456 1462 1446 1450 1456 1460 1464 1467 1464 1458 1456 1460 1456 1453 1448 1439 1439 1434 1430 1426 1421 1418
1488 1484 1480 1477 1473 1470 1468 1467 1468 1470 1459 1454 1448 1445 1440 1441 1437 1430 1434 1434 1437 1435 1443 1453 1434 1437 1445 1449 1454 1460 1465 1462 1455 1456 1458 1453 1450 1441 1435 1428 1427 1424 1419 1414 1413
1486 1482 1477 1474 1471 1468 1467 1468 1467 1464 1461 1445 1432 1430 1428 1427 1429 1418 1430 1424 1427 1432 1427 1428 1416 1435 1440 1446 1454 1456 1459 1456 1461 1454 1451 1450 1450 1440 1426 1424 1419 1417 1413 1408 1407
1483 1479 1475 1471 1470 1467 1465 1465 1465 1464 1461 1437 1428 1424 1422 1423 1417 1412 1417 1420 1419 1420 1426 1426 1427 1428 1436 1440 1444 1454 1444 1450 1455 1462 1470 1451 1473 1445 1432 1420 1414 1409 1405 1404 1404
1480 1477 1473 1469 1467 1466 1466 1463 1463 1464 1466 1426 1423 1422 1421 1420 1413 1397 1404 1414 1409 1411 1419 1411 1417 1425 1427 1420 1433 1437 1438 1444 1448 1456 1459 1455 1468 1440 1430 1424 1411 1403 1399 1399 1400
1478 1473 1468 1466 1463 1464 1462 1462 1463 1468 1455 1427 1424 1424 1420 1416 1410 1401 1399 1410 1406 1409 1405 1405 1405 1411 1414 1421 1427 1430 1438 1443 1449 1458 1464 1451 1462 1442 1431 1413 1407 1398 1396 1396 1395
1474 1469 1465 1462 1460 1460 1460 1461 1466 1463 1433 1429 1430 1426 1417 1412 1399 1396 1402 1403 1398 1408 1408 1407 1408 1405 1410 1424 1423 1431 1449 1474 1479 1481 1468 1439 1454 1421 1408 1403 1399 1394 1392 1394 1396
1470 1466 1462 1459 1457 1457 1458 1461 1462 1442 1437 1432 1431 1424 1417 1416 1411 1404 1397 1400 1396 1394 1400 1410 1420 1405 1401 1408 1418 1425 1437 1463 1471 1470 1451 1433 1443 1406 1394 1393 1391 1390 1390 1393 1397
1467 1462 1460 1458 1456 1456 1459 1460 1453 1443 1440 1439 1431 1423 1420 1420 1425 1418 1405 1397 1396 1394 1396 1402 1405 1388 1391 1395 1407 1419 1434 1428 1445 1440 1450 1439 1415 1393 1385 1385 1383 1385 1388 1390 1396
1465 1460 1460 1457 1457 1457 1458 1456 1451 1444 1442 1439 1440 1431 1429 1422 1422 1431 1412 1406 1403 1399 1389 1386 1402 1385 1388 1394 1395 1404 1413 1438 1442 1456 1453 1435 1425 1413 1388 1386 1383 1387 1387 1391 1395
1463 1461 1462 1459 1457 1457 1457 1455 1449 1444 1443 1441 1436 1435 1430 1424 1421 1429 1422 1410 1412 1401 1390 1384 1389 1385 1385 1384 1395 1406 1415 1419 1424 1441 1448 1453 1428 1393 1386 1381 1383 1381 1383 1389 1390
1466 1464 1462 1460 1461 1461 1460 1455 1450 1444 1441 1439 1435 1434 1430 1423 1424 1429 1424 1427 1424 1417 1407 1399 1395 1394 1384 1374 1377 1384 1393 1407 1416 1433 1429 1432 1423 1379 1378 1378 1379 1380 1382 1390 1394
1470 1466 1463 1461 1463 1462 1458 1455 1451 1446 1441 1438 1435 1431 1429 1425 1425 1419 1423 1425 1426 1420 1413 1405 1399 1398 1392 1381 1379 1382 1386 1393 1408 1419 1422 1427 1416 1379 1377 1376 1377 1381 1383 1390 1395
1473 1470 1465 1463 1464 1464 1460 1454 1452 1444 1440 1437 1434 1429 1427 1424 1421 1419 1418 1419 1421 1416 1412 1405 1403 1393 1379 1374 1376 1385 1384 1388 1402 1419 1416 1400 1395 1383 1377 1379 1378 1379 1384 1389 1396
1476 1474 1471 1466 1464 1461 1462 1459 1452 1448 1441 1437 1433 1432 1432 1429 1424 1419 1418 1416 1416 1415 1415 1412 1410 1395 1384 1374 1372 1373 1378 1385 1392 1390 1406 1394 1396 1386 1378 1377 1377 1377 1383 1389 1395
1480 1477 1472 1467 1462 1459 1458 1455 1452 1447 1446 1438 1435 1432 1432 1429 1427 1425 1420 1417 1418 1416 1415 1411 1408 1401 1389 1375 1371 1377 1375 1376 1376 1384 1391 1388 1387 1372 1372 1374 1377 1376 1381 1387 1392
1479 1476 1473 1466 1464 1461 1457 1454 1451 1449 1439 1437 1435 1433 1430 1424 1421 1419 1418 1415 1418 1418 1415 1415 1410 1406 1400 1389 1375 1383 1368 1374 1376 1374 1375 1390 1365 1371 1373 1373 1371 1373 1378 1382 1387
Wind_Speed
20 23 25 27 29 31 30 30 28 26 26 26 27 26 25 27 27 26 30 25 17 12 17 14 11 20 16 14 13 9 2 6 7 7 8 3 3 5 3 9 8 13 25 26 28
20 20 21 24 25 28 30 31 31 30 29 27 27 27 26 27 30 36 33 28 20 21 24 21 22 21 15 14 11 9 6 11 11 9 6 7 2 17 8 18 15 21 27 28 29
17 18 17 17 21 23 26 28 29 30 30 30 28 28 26 24 28 34 30 21 22 25 26 22 13 24 15 11 16 9 14 19 19 24 8 7 15 14 11 15 27 21 35 37 32
19 19 19 19 19 20 21 23 25 27 28 28 29 29 28 17 8 1 14 11 13 22 25 25 20 17 8 11 20 4 18 28 27 24 14 7 15 21 22 28 38 36 40 41 31
20 20 20 21 21 21 20 19 20 22 24 25 24 24 25 16 24 5 16 6 6 4 20 30 29 22 9 9 17 9 10 19 24 25 29 23 17 22 29 44 40 37 39 38 34
20 20 21 21 22 22 20 21 20 21 21 21 19 16 18 19 30 29 36 29 24 21 12 24 19 27 11 10 9 8 22 25 21 32 32 19 19 21 40 37 35 34 38 40 37
22 22 23 23 23 24 23 22 21 21 21 20 18 17 25 43 24 19 18 36 34 27 24 20 21 19 11 3 12 12 7 8 14 23 9 21 14 21 47 30 30 35 40 41 38
21 22 23 24 24 25 24 25 24 24 24 21 15 12 19 23 28 32 34 20 23 25 23 22 17 25 5 4 1 2 2 3 7 5 8 12 14 23 35 27 35 33 30 34 35
23 25 25 24 24 25 26 27 25 25 22 20 13 11 18 15 25 31 34 40 33 21 16 12 23 17 5 8 7 3 9 10 8 8 4 8 12 15 23 11 23 32 33 31 33
21 23 25 26 27 25 25 26 22 13 10 1 7 7 17 13 15 17 15 27 30 23 22 15 12 6 5 7 16 5 5 6 10 2 4 10 15 18 39 16 23 27 35 37 39
22 23 23 23 25 26 24 24 8 3 5 7 8 21 26 15 16 12 11 14 24 14 10 12 8 20 22 13 6 7 14 13 3 4 7 10 10 14 23 13 18 29 34 41 42
24 24 24 23 23 24 20 5 5 8 12 24 31 35 39 41 20 24 10 13 14 18 13 6 27 20 11 14 14 9 12 17 12 4 7 10 13 15 17 18 20 28 37 36 30
25 24 23 24 24 18 10 7 5 19 6 18 29 18 26 28 26 44 15 14 6 14 24 26 19 12 15 9 13 13 18 17 11 6 6 7 13 12 14 14 19 25 22 23 24
24 22 23 24 15 12 13 0 9 12 4 8 4 7 8 10 10 40 27 14 8 19 18 17 24 18 10 18 15 18 15 15 12 4 8 5 6 9 9 17 8 21 23 25 21
22 23 22 18 21 14 10 9 8 2 5 3 3 2 16 10 12 15 46 23 10 10 10 13 18 20 23 24 20 13 7 7 7 7 2 5 5 6 5 10 14 11 26 29 24
23 24 22 18 17 8 6 7 2 2 7 5 5 11 12 9 17 13 15 31 12 6 9 15 11 19 12 9 13 4 3 4 4 1 10 13 7 5 6 12 6 6 14 17 14
26 22 19 17 15 13 9 2 2 4 6 2 7 14 20 12 7 6 11 17 12 13 13 5 9 3 7 13 5 7 7 2 4 1 6 6 6 15 11 10 9 12 21 12 10
26 21 13 8 9 6 2 2 5 3 6 12 14 15 10 14 9 20 7 14 22 2 11 9 6 15 7 10 13 15 9 6 6 3 5 5 8 9 13 15 21 23 18 10 17
28 19 6 13 7 5 3 2 4 2 4 10 12 8 7 12 5 12 7 3 8 22 5 10 8 4 15 7 18 11 10 12 1 2 1 4 8 8 6 9 5 1 6 15 20
29 12 14 9 2 6 2 3 3 5 9 7 5 5 7 11 8 12 6 12 11 8 15 3 3 7 14 9 19 9 11 7 6 6 3 5 5 6 2 6 3 6 10 19 21
13 5 10 10 3 3 1 3 4 11 9 3 3 4 8 12 6 3 8 8 22 23 10 1 4 3 10 16 17 5 7 3 8 5 5 1 6 8 9 9 9 9 17 24 27
12 3 7 8 4 2 3 3 8 8 10 6 5 9 8 9 4 1 5 9 29 19 11 3 1 4 12 8 21 22 16 8 7 4 4 3 6 3 9 7 7 8 15 19 23
12 6 5 6 2 2 5 4 4 5 5 4 5 3 7 7 6 5 3 5 14 15 14 7 4 2 5 2 2 22 17 16 5 3 14 8 6 3 5 6 7 11 18 19 23
7 4 4 4 3 3 6 6 4 9 8 5 4 7 5 6 7 4 7 2 9 16 17 9 3 5 9 5 6 5 15 19 11 4 3 10 2 5 4 7 5 13 19 22 24
8 3 3 4 4 8 5 3 5 4 5 10 3 4 4 4 6 1 5 3 5 10 11 2 3 5 10 12 3 6 12 19 17 23 12 4 8 6 8 8 6 18 21 24 25
8 4 5 9 11 7 4 3 4 5 4 5 3 11 7 5 6 7 8 4 1 3 5 3 4 6 4 8 14 10 7 16 22 20 16 4 10 9 1 8 9 22 25 26 29
9 10 7 6 4 2 2 4 9 12 11 10 10 13 10 11 6 15 13 11 5 3 4 4 4 6 4 7 4 7 15 8 9 13 18 12 24 4 4 7 11 23 28 30 32
Wind_Direction
305 300 297 295 296 298 296 294 291 288 285 283 280 279 281 281 275 271 263 263 269 268 254 221 202 215 211 209 193 187 158 242 240 186 241 141 329 299 318 281 285 283 286 291 293
319 311 305 300 296 291 294 295 294 293 290 286 283 280 279 281 282 274 264 267 259 258 252 233 220 201 197 212 198 182 197 227 220 216 246 293 309 305 319 303 287 288 293 292 294
342 340 334 319 305 300 296 295 293 293 291 288 284 282 281 283 293 282 280 261 238 244 235 235 218 200 194 200 199 207 225 229 259 248 270 285 303 306 277 285 286 286 300 302 302
339 337 336 333 332 327 318 307 300 296 289 287 287 284 278 278 240 208 192 139 209 219 221 211 194 182 201 199 214 213 231 237 250 264 277 255 289 283 284 272 282 291 295 296 287
337 334 331 329 327 326 325 323 316 307 297 292 287 284 284 258 236 221 197 200 19 189 212 199 182 185 187 207 222 237 241 244 253 267 270 281 263 267 278 279 286 290 291 291 288
330 329 328 328 327 326 325 321 315 310 308 300 291 287 279 253 259 250 247 246 262 272 283 203 206 202 209 228 184 202 235 253 268 262 262 270 278 277 272 274 280 286 290 294 293
330 328 326 325 323 320 320 319 314 313 309 302 295 282 265 250 249 257 254 247 248 254 254 253 208 198 219 306 253 250 238 260 253 258 249 264 274 258 267 281 281 284 288 286 286
327 324 323 323 322 320 318 311 310 314 302 288 287 282 260 269 269 253 243 246 236 240 236 244 236 231 219 229 328 190 207 239 256 220 252 187 259 270 273 272 274 279 288 289 286
325 326 324 322 320 318 316 310 314 309 301 285 262 252 271 270 262 272 253 238 240 239 230 214 224 223 192 225 283 246 249 254 289 233 232 177 270 272 282 281 281 285 289 286 289
329 327 326 325 325 324 321 317 317 311 315 2 237 279 260 253 304 289 282 240 228 236 220 223 214 187 184 175 215 194 242 238 234 263 215 256 256 274 279 267 269 284 289 290 296
333 329 326 323 323 326 329 337 358 324 329 260 235 245 281 284 322 242 269 223 206 206 174 184 200 215 206 204 202 207 231 246 250 207 244 245 265 266 279 273 275 283 285 292 293
334 330 326 325 324 321 321 346 55 326 299 291 276 258 267 276 285 275 233 165 184 198 165 179 227 217 185 200 208 210 237 252 267 229 237 271 273 272 275 275 266 273 278 282 285
332 331 328 323 325 321 343 355 319 334 268 288 261 247 245 248 231 259 234 195 182 186 189 202 220 197 192 187 201 215 224 241 247 313 253 309 289 271 279 276 276 282 284 294 274
329 329 329 323 323 323 323 267 317 326 301 273 223 255 242 235 245 237 226 207 193 195 195 229 222 192 183 207 188 221 218 241 262 273 267 143 281 302 300 299 284 284 294 292 284
333 327 322 317 306 310 308 302 288 154 314 239 201 84 333 185 304 234 223 231 203 167 165 210 180 203 204 207 199 232 204 217 231 229 229 255 277 270 272 281 282 275 285 279 270
332 329 322 316 292 311 307 317 288 108 246 300 25 344 334 245 257 274 167 213 226 182 235 215 203 200 185 184 205 136 219 30 33 53 258 263 207 225 228 239 260 264 276 294 267
334 331 324 305 293 302 309 287 109 206 333 7 346 333 319 341 313 191 224 196 190 187 204 158 222 167 155 212 166 141 99 284 332 296 235 197 185 250 254 231 226 258 276 296 218
336 334 334 339 291 266 132 78 217 257 251 349 340 319 330 17 335 335 220 221 228 150 172 176 205 196 171 182 193 196 168 154 204 226 256 164 206 248 226 233 246 259 262 224 191
340 343 14 357 327 152 149 191 228 283 17 337 336 324 339 354 349 346 318 358 222 235 208 189 235 179 190 161 178 199 191 181 354 180 323 228 281 309 228 260 267 261 208 190 182
338 347 3 2 33 162 189 240 273 338 329 322 303 319 328 332 353 350 307 10 351 333 229 220 167 191 210 187 190 158 142 180 202 204 225 268 269 234 249 246 290 228 204 183 176
351 7 14 13 309 105 314 267 296 294 320 303 293 289 297 307 328 23 289 25 7 346 329 269 156 274 144 198 185 165 174 157 170 168 170 279 262 215 229 232 234 224 189 185 174
359 12 351 333 27 14 311 309 312 294 305 265 263 252 258 319 313 244 268 325 342 342 333 311 305 220 211 163 195 199 193 156 192 195 212 166 267 217 231 256 233 227 176 183 177
342 301 0 19 33 338 300 286 264 296 284 317 304 299 311 293 304 218 276 344 330 323 343 341 276 162 14 313 175 201 207 207 115 106 206 213 255 308 323 303 256 192 167 171 170
351 338 340 40 45 301 326 301 297 294 281 272 264 286 325 312 304 274 263 289 343 330 333 355 278 263 205 196 140 148 201 206 197 204 203 223 305 285 277 256 230 157 168 168 174
0 312 322 315 318 315 304 290 295 317 319 307 301 12 335 312 304 314 14 326 11 350 334 25 277 318 300 290 269 162 179 199 202 215 212 221 242 251 250 239 223 168 163 167 175
356 334 314 290 287 321 329 273 325 338 299 305 289 312 315 288 282 294 336 28 128 344 309 311 293 346 290 262 275 265 253 211 199 209 231 250 254 228 252 137 166 164 170 177 185
339 327 286 279 298 294 272 304 307 312 283 242 305 314 306 288 322 293 269 235 221 272 332 309 351 356 304 339 256 261 235 208 207 224 204 195 236 140 193 213 181 174 187 189 192